Location: Choisy
(48.7685°N, 2.4187°E)
Time: 10:31:27
(UTC+00:00)

ATLAS 3B R/B - Pass Details

Date: 07 December 2023
Orbit: 947 x 1247 km, 63.8° (Epoch: 10 February)

Event Time Altitude Azimuth Distance (km) Brightness Sun altitude
Exits shadow 01:38:42 11° 63° (ENE) 3,027 5.4 -55.0°
Drops below altitude 10° 01:38:53 10° 62° (ENE) 3,074 5.5 -55.0°
Sets 01:42:26 0° 48° (NE) 4,089 6.3 -54.5°
